User: anonymous   Login
Location: ??????
(41.3164°N, 22.6615°E)
Time: 01:22:17
(UTC+00:00)
Language:

Cosmos 2227 Rocket - Orbit

View from above orbital plane
View from above orbital plane
View from above satellite
View from above satellite

Ground track
Ground track

The orbit data is extracted from the following two-line orbital elements,

1 22285U 92093B   22020.50084341  .00000300  00000-0  17900-3 0  9996
2 22285  71.0220 291.4092 0002083  90.0743 270.0618 14.15071103499634
Epoch (UTC): 20 January 2022 12:01:12
Eccentricity: 0.0002083
inclination: 71.0220°
perigee height: 840 km
apogee height: 843 km
right ascension of ascending node: 291.4092°
argument of perigee: 90.0743°
revolutions per day: 14.15071103
mean anomaly at epoch: 270.0618°
orbit number at epoch: 49963

The dashed part of the orbit path shows where the satellite is in the earth's shadow,  

DLR